TimeMST,TemperatureF,Dew PointF,Humidity,Sea Level PressureIn,VisibilityMPH,Wind Direction,Wind SpeedMPH,Gust SpeedMPH,PrecipitationIn,Events,Conditions,WindDirDegrees,DateUTC
12:15 AM,42.8,32.0,66,30.28,10.0,SSE,3.5,-,N/A,,Clear,160,2012-11-20 07:15:00
12:35 AM,41.0,32.0,70,30.28,10.0,Calm,Calm,-,N/A,,Clear,0,2012-11-20 07:35:00
12:55 AM,37.4,32.0,81,30.28,10.0,Calm,Calm,-,N/A,,Clear,0,2012-11-20 07:55:00
1:15 AM,35.6,30.2,81,30.27,10.0,Calm,Calm,-,N/A,,Clear,0,2012-11-20 08:15:00
1:35 AM,37.4,30.2,75,30.27,10.0,SSE,3.5,-,N/A,,Clear,150,2012-11-20 08:35:00
5:15 AM,32.0,28.4,87,30.27,10.0,Calm,Calm,-,N/A,,Clear,0,2012-11-20 12:15:00
5:35 AM,32.0,30.2,93,30.27,10.0,ESE,4.6,-,N/A,,Clear,120,2012-11-20 12:35:00
5:55 AM,32.0,30.2,93,30.28,10.0,SE,3.5,-,N/A,,Clear,130,2012-11-20 12:55:00
6:15 AM,32.0,30.2,93,30.28,10.0,Calm,Calm,-,N/A,,Clear,0,2012-11-20 13:15:00
6:35 AM,32.0,30.2,93,30.28,10.0,Calm,Calm,-,N/A,,Clear,0,2012-11-20 13:35:00
6:55 AM,32.0,30.2,93,30.29,10.0,Calm,Calm,-,N/A,,Clear,0,2012-11-20 13:55:00
7:15 AM,33.8,30.2,87,30.29,10.0,Calm,Calm,-,N/A,,Clear,0,2012-11-20 14:15:00
7:35 AM,33.8,30.2,87,30.30,10.0,Calm,Calm,-,N/A,,Clear,0,2012-11-20 14:35:00
7:55 AM,35.6,30.2,81,30.31,10.0,East,3.5,-,N/A,,Clear,100,2012-11-20 14:55:00
8:15 AM,41.0,32.0,70,30.31,10.0,ESE,3.5,-,N/A,,Clear,110,2012-11-20 15:15:00
8:35 AM,44.6,32.0,61,30.31,10.0,ESE,4.6,-,N/A,,Clear,120,2012-11-20 15:35:00
8:55 AM,50.0,32.0,50,30.32,10.0,SE,4.6,-,N/A,,Clear,140,2012-11-20 15:55:00
9:15 AM,53.6,33.8,47,30.32,10.0,SE,4.6,-,N/A,,Clear,140,2012-11-20 16:15:00
9:35 AM,57.2,33.8,41,30.31,10.0,East,5.8,-,N/A,,Clear,100,2012-11-20 16:35:00
9:55 AM,59.0,33.8,39,30.31,10.0,ESE,8.1,-,N/A,,Clear,110,2012-11-20 16:55:00
10:15 AM,60.8,33.8,36,30.31,10.0,SE,10.4,-,N/A,,Clear,130,2012-11-20 17:15:00
10:35 AM,62.6,33.8,34,30.29,10.0,SE,13.8,-,N/A,,Clear,130,2012-11-20 17:35:00
10:55 AM,64.4,33.8,32,30.28,10.0,SE,13.8,21.9,N/A,,Clear,130,2012-11-20 17:55:00
11:15 AM,68.0,33.8,28,30.27,10.0,ESE,17.3,20.7,N/A,,Clear,110,2012-11-20 18:15:00
11:35 AM,68.0,33.8,28,30.26,10.0,ESE,16.1,23.0,N/A,,Clear,120,2012-11-20 18:35:00
11:55 AM,68.0,33.8,28,30.25,10.0,ESE,17.3,23.0,N/A,,Clear,120,2012-11-20 18:55:00
12:15 PM,68.0,33.8,28,30.24,10.0,ESE,18.4,23.0,N/A,,Clear,120,2012-11-20 19:15:00
12:35 PM,69.8,32.0,25,30.22,10.0,ESE,17.3,25.3,N/A,,Clear,120,2012-11-20 19:35:00
12:55 PM,69.8,32.0,25,30.21,10.0,ESE,15.0,24.2,N/A,,Clear,120,2012-11-20 19:55:00
1:15 PM,69.8,32.0,25,30.20,10.0,ESE,17.3,29.9,N/A,,Clear,120,2012-11-20 20:15:00
1:35 PM,71.6,32.0,23,30.19,10.0,SE,17.3,21.9,N/A,,Clear,130,2012-11-20 20:35:00
1:55 PM,69.8,32.0,25,30.18,10.0,ESE,17.3,23.0,N/A,,Clear,120,2012-11-20 20:55:00
2:15 PM,69.8,33.8,27,30.18,10.0,SE,11.5,18.4,N/A,,Clear,140,2012-11-20 21:15:00
2:35 PM,71.6,33.8,25,30.17,10.0,ESE,12.7,17.3,N/A,,Clear,110,2012-11-20 21:35:00
2:55 PM,69.8,33.8,27,30.17,10.0,SE,10.4,25.3,N/A,,Clear,130,2012-11-20 21:55:00
3:15 PM,68.0,33.8,28,30.17,10.0,ESE,12.7,19.6,N/A,,Clear,120,2012-11-20 22:15:00
3:35 PM,68.0,33.8,28,30.17,10.0,ESE,15.0,18.4,N/A,,Clear,110,2012-11-20 22:35:00
3:55 PM,68.0,32.0,26,30.17,10.0,East,11.5,-,N/A,,Clear,100,2012-11-20 22:55:00
4:15 PM,68.0,32.0,26,30.16,10.0,East,11.5,-,N/A,,Clear,100,2012-11-20 23:15:00
4:35 PM,68.0,33.8,28,30.16,10.0,ESE,11.5,-,N/A,,Clear,110,2012-11-20 23:35:00
4:55 PM,66.2,33.8,30,30.17,10.0,ESE,10.4,-,N/A,,Clear,120,2012-11-20 23:55:00
5:15 PM,64.4,33.8,32,30.18,10.0,ESE,6.9,-,N/A,,Clear,120,2012-11-21 00:15:00
5:35 PM,62.6,33.8,34,30.18,10.0,SSE,6.9,-,N/A,,Clear,150,2012-11-21 00:35:00
5:55 PM,60.8,33.8,36,30.18,10.0,SSE,5.8,-,N/A,,Clear,150,2012-11-21 00:55:00
6:15 PM,60.8,33.8,36,30.18,10.0,SSE,5.8,-,N/A,,Clear,160,2012-11-21 01:15:00
6:35 PM,57.2,33.8,41,30.18,10.0,SSE,5.8,-,N/A,,Clear,160,2012-11-21 01:35:00
6:55 PM,55.4,32.0,41,30.19,10.0,SE,5.8,-,N/A,,Clear,140,2012-11-21 01:55:00
7:15 PM,53.6,32.0,44,30.19,10.0,SSE,6.9,-,N/A,,Clear,150,2012-11-21 02:15:00
7:35 PM,53.6,33.8,47,30.19,10.0,SSE,9.2,-,N/A,,Clear,150,2012-11-21 02:35:00
7:55 PM,55.4,33.8,44,30.19,10.0,SSE,8.1,-,N/A,,Clear,150,2012-11-21 02:55:00
8:15 PM,53.6,32.0,44,30.19,10.0,SSE,6.9,-,N/A,,Clear,160,2012-11-21 03:15:00
8:35 PM,53.6,32.0,44,30.19,10.0,South,6.9,-,N/A,,Clear,170,2012-11-21 03:35:00
8:55 PM,53.6,32.0,44,30.19,10.0,SSE,8.1,-,N/A,,Clear,160,2012-11-21 03:55:00
9:15 PM,55.4,32.0,41,30.19,10.0,SSE,9.2,-,N/A,,Clear,160,2012-11-21 04:15:00
9:35 PM,55.4,32.0,41,30.19,10.0,SSE,6.9,-,N/A,,Clear,160,2012-11-21 04:35:00
9:55 PM,55.4,32.0,41,30.19,10.0,South,9.2,-,N/A,,Clear,170,2012-11-21 04:55:00
10:15 PM,53.6,32.0,44,30.18,10.0,SSE,5.8,-,N/A,,Clear,160,2012-11-21 05:15:00
10:35 PM,55.4,33.8,44,30.18,10.0,South,5.8,-,N/A,,Clear,170,2012-11-21 05:35:00
10:55 PM,55.4,32.0,41,30.18,10.0,SSE,6.9,-,N/A,,Clear,160,2012-11-21 05:55:00
11:15 PM,55.4,32.0,41,30.18,10.0,SSE,4.6,-,N/A,,Clear,160,2012-11-21 06:15:00
11:35 PM,55.4,32.0,41,30.18,10.0,South,4.6,-,N/A,,Clear,180,2012-11-21 06:35:00
11:55 PM,53.6,32.0,44,30.18,10.0,SW,4.6,-,N/A,,Clear,220,2012-11-21 06:55:00